Location: Caltech
(34.1382°N, 118.1253°W)
Time: 20:28:03
(UTC-08:00)

Cosmos 2084 - Visible Passes

Search period start: 04 December 2016 00:00
Search period end: 14 December 2016 00:00
Orbit: 498 x 688 km, 62.8° (Epoch: 04 December)

Date Brightness Start Highest point End Pass type
(mag) Time Alt. Az. Time Alt. Az. Time Alt. Az.
06 Dec 6.5 05:06:15 10° SSE 05:08:28 15° ESE 05:10:38 10° ENE visible
07 Dec 5.3 05:13:52 10° S 05:17:18 29° ESE 05:20:38 10° NE visible
08 Dec 3.7 05:22:18 10° SSW 05:26:12 61° ESE 05:29:58 10° NE visible
09 Dec 3.1 05:31:16 10° SW 05:35:10 63° WNW 05:38:58 10° NNE visible
10 Dec 6.0 04:04:48 16° ESE 04:04:57 17° ESE 04:07:27 10° ENE visible
10 Dec 3.9 05:41:36 15° WSW 05:44:13 31° NW 05:47:38 10° N visible
11 Dec 5.7 04:16:04 18° ENE 04:16:04 18° ENE 04:17:16 10° NE visible
11 Dec 4.7 05:52:46 17° WNW 05:53:21 17° NW 05:55:56 10° N visible
12 Dec 6.0 04:26:22 11° NE 04:26:22 11° NE 04:26:32 10° NE visible
